Regional Weather Roundup
Issued by NWS

Home | Current Version | Previous Version | Graphics & Text | Print | Product List | Glossary On
Versions: 1 2 3 4 5 6 7 8 9 10 11 12 13 14 15 16 17 18 19 20 21 22 23 24 25 26 27 28 29 30 31 32 33 34 35 36 37 38 39 40 41 42 43 44 45 46 47 48 49 50
000
ASUS43 KLOT 290803
RWRIL

ILLINOIS REGIONAL WEATHER ROUNDUP
NATIONAL WEATHER SERVICE CHICAGO/ROMEOVILLE IL
300 AM CDT MON AUG 29 2016

NOTE: "FAIR" INDICATES FEW OR NO CLOUDS BELOW 12,000 FEET WITH NO
SIGNIFICANT WEATHER AND/OR OBSTRUCTIONS TO VISIBILITY.

* THESE STATIONS ARE NOT UNDER NWS QUALITY CONTROL. THEY ALSO MAY NOT
  REPORT WEATHER SUCH AS PRECIPITATION OR FOG.

ILZ001-002-007-009-015-016-024-290900-
NORTHWEST ILLINOIS

CITY           SKY/WX    TMP DP  RH WIND       PRES   REMARKS
MOLINE         CLOUDY    70  67  90 E5        30.17F
STERLING*      CLOUDY    69  68  96 E6        30.19F
SAVANNA*       CLEAR     69  68  96 CALM      30.19S
$$

ILZ003-004-008-010-011-017-018-290900-
NORTH CENTRAL ILLINOIS

CITY           SKY/WX    TMP DP  RH WIND       PRES   REMARKS
ROCKFORD       PTCLDY    70  67  90 SE3       30.21F
FREEPORT*      CLEAR     65  64  97 E3        30.22F
ROCHELLE*      PTCLDY    65  65  99 CALM      30.21S FOG
$$

ILZ005-006-012>014-019>023-290900-
NORTHEAST ILLINOIS

CITY           SKY/WX    TMP DP  RH WIND       PRES   REMARKS
CHICAGO-OHARE  PTCLDY    72  68  87 E5        30.20F
CHICAGO-MIDWAY PTCLDY    74  69  85 E5        30.20S
AURORA         PTCLDY    68  66  93 N5        30.21S FOG
LANSING*       MOCLDY    70  70  99 E3        30.21R
JOLIET*        CLEAR     71  70  97 CALM      30.19F FOG
WAUKEGAN       PTCLDY    67  66  97 CALM      30.21S FOG
DUPAGE AIRPORT CLEAR     68  65  90 N5        30.20S
KANKAKEE*      CLEAR     68  67  98 CALM      30.20S FOG
WHEELING       PTCLDY    69  67  93 CALM      30.22S
MORRIS*        PTCLDY    68  67  98 CALM      30.18S FOG
ROMEOVILLE*    CLEAR     69  69 100 E5        30.19F
$$

LMZ740>746-290900-
SOUTHERN LAKE MICHIGAN

STATION/POSITION SKY/WX   TEMP    WIND        PRES    VSBY  WAVE
                          AIR SEA DIR/SP/G                  HT/PER
                          (F)     (DEG/KT/KT) (MB)    (MI)  (FT/S)
SOUTHERN BUOY              73 75   80/  6/  6 1022.9          1
WILMETTE HARBOR            74 73  120/  4/  4   N/A           1/ 3
HARRISON CRIB              75      90/  6/  7   N/A
BURNHAM HARBOR             72      70/  3/  4   N/A
CALUMET HARBOR             73      90/  5/  6 1022.1F
BURNS HARBOR               71      80/  3/  6 1023.0F
MICHIGAN CITY              70      20/  4/  4   N/A
MICHIGAN CITY 6N           72 75  140/  2/  4   N/A           2/ 4
ST. JOSEPH                 72 75   80/  4/  6 1022.9F         1/ 3
$$

ILZ025>027-034>036-040-047-049-050-058-095>099-290900-
WEST-CENTRAL ILLINOIS

CITY           SKY/WX    TMP DP  RH WIND       PRES   REMARKS
QUINCY         CLEAR     73  72  96 E6        30.14F
GALESBURG*     PTCLDY    69  67  92 CALM      30.17S
MACOMB*        CLEAR     68  68 100 CALM      30.18S FOG
JACKSONVILLE*  CLEAR     70  69  96 CALM      30.14S
PITTSFIELD*    CLEAR     71  71  99 CALM      30.16S
$$

ILZ028>032-037-038-041>044-048-051>054-059>061-290900-
CENTRAL ILLINOIS

CITY           SKY/WX    TMP DP  RH WIND       PRES   REMARKS
PONTIAC        CLEAR     70  70 100 NE5       30.18S FOG
BLOOMINGTON    CLEAR     70  67  90 E3        30.18S
DECATUR        CLEAR     71  69  93 NE3       30.16F
PEORIA         CLEAR     71  71 100 CALM      30.16F
LACON*         PTCLDY    67  66  97 CALM      30.17S FOG
LINCOLN*       CLEAR     71  71 100 CALM      30.16S
SPRINGFIELD    CLEAR     73  71  93 CALM      30.15F
TAYLORVILLE    CLEAR     70  70  99 CALM      30.15S FOG
$$

ILZ033-039-045-046-055>057-062-063-290900-
EAST-CENTRAL ILLINOIS

CITY           SKY/WX    TMP DP  RH WIND       PRES   REMARKS
CHAMPAIGN      CLEAR     72  69  90 NE5       30.17F
RANTOUL*       CLEAR     72  70  94 E3        30.18S
MATTOON        CLEAR     70  68  93 NE3       30.15R
PARIS*         CLEAR     69  69 100 CALM      30.18R
$$

ILZ079-100>102-290900-
SOUTHWEST ILLINOIS

CITY           SKY/WX    TMP DP  RH WIND       PRES   REMARKS
ALTON          CLEAR     72  71  97 CALM      30.14F
BELLEVILLE     CLEAR     74  74 100 CALM      30.12F
CAHOKIA*       CLEAR     75  71  87 CALM      30.13S
SPARTA*        CLEAR     73  72  98 NE3       30.14S
$$

ILZ064>066-069>071-074>076-080>082-084>086-088>090-092>094-290900-
SOUTH-CENTRAL ILLINOIS

CITY           SKY/WX    TMP DP  RH WIND       PRES   REMARKS
CARBONDALE     CLEAR     73  71  93 NW3       30.11F FOG
EFFINGHAM*     CLEAR     70  70 100 CALM      30.16S
MARION         CLEAR     73  73 100 CALM      30.12S FOG
MT. VERNON     CLEAR     72  66  83 CALM      30.13F
CENTRALIA*     CLEAR     72  71  98 CALM      30.13S
SALEM*         CLEAR     72  69  92 CALM      30.14S
METROPOLIS*    CLEAR     73  72  97 CALM      30.10F FOG
$$

ILZ067-068-072-073-078-083-087-091-290900-
SOUTHEAST ILLINOIS

CITY           SKY/WX    TMP DP  RH WIND       PRES   REMARKS
LAWRENCEVILLE  PTCLDY    70  70 100 CALM      30.14S
FLORA*         PTCLDY    72  70  93 CALM      30.13F
FAIRFIELD*     CLEAR     71  71  98 CALM      30.12F
HARRISBURG*    CLEAR     74  74  99 CALM      30.11F FOG
ROBINSON*      CLEAR     67  67 100 CALM        N/A  FOG
CARMI*         CLEAR     72  71  97 CALM      30.12S
$$

ABBREVIATIONS USED IN REMARKS
   TC - TEMPERATURE IN CELSIUS
  WCI - WIND CHILL INDEX
   HX - HEAT INDEX
  VSB - VISIBILITY
$$





USA.gov is the U.S. government's official web portal to all federal, state and local government web resources and services.